Flag for U.S.A. Weather past 2 weeks in Butte, Montana, U.S.A.

Now
-1 °F

Clear.


Feels Like: -11 °F
Forecast: 1 / 26 °F
Wind: 5 mph from Southeast

Location: Mooney Airport

Current Time: Mar 4, 2015 at 4:53:48 AM

Latest Report: Mar 4, 2015 at 3:53 AM


Visibility: 10 mi

Pressure: 30.33 "Hg

Humidity: 79%

Dew point: -6 °F

Location of ButteLocation

Historic Weather in Butte — Graph

°F

Butte temperature yesterday

Maximum temperature yesterday: 19 °F (at 3:53 PM)
Minimum temperature yesterday: 3 °F (at 6:53 AM)
Average temperature yesterday: 10 °F

Past Weeks' High & Low Weather Summary

 TemperatureHumidityPressure
High50 °F (Feb 18, 3:53 PM)93% (Feb 20, 7:03 AM)30.72 "Hg (Feb 20, 7:03 AM)
Low-15 °F (Feb 22, 5:53 AM)27% (Feb 22, 1:53 PM)29.74 "Hg (Mar 2, 7:02 PM)
Average20 °F65%30.23 "Hg
* Reported Feb 17 3:53 AM — Mar 4 3:53 AM, Butte, Weather by CustomWeather, © 2015

Note: Actual official high and low records may vary slightly from our data, if they occured in-between our weather recording intervals... More about our weather records

Advertising

Butte weather history for previous 24 hours

 ConditionsComfort  
Time TempWeatherWind HumidityBarometerVisibility
3:53 AM
Wed, Mar 4
-1 °FClear.5 mph79%30.33 "Hg10 mi
2:53 AM3 °FPassing clouds.No wind84%30.31 "Hg10 mi
1:53 AM6 °FMostly cloudy.No wind79%30.29 "Hg8 mi
12:53 AM4 °FMostly cloudy.5 mph84%30.31 "Hg10 mi
11:53 PM
Tue, Mar 3
4 °FClear.5 mph76%30.31 "Hg10 mi
10:53 PM4 °FOvercast.6 mph80%30.30 "Hg10 mi
9:53 PM4 °FPassing clouds.5 mph80%30.29 "Hg10 mi
8:53 PM7 °FClear.6 mph73%30.27 "Hg10 mi
7:53 PM9 °FPassing clouds.3 mph66%30.25 "Hg10 mi
6:53 PM16 °FClear.8 mph51%30.20 "Hg10 mi
5:53 PM16 °FSunny.9 mph51%30.16 "Hg10 mi
4:53 PM18 °FSunny.10 mph45%30.12 "Hg10 mi
3:53 PM19 °FSunny.9 mph43%30.11 "Hg10 mi
2:53 PM17 °FSunny.5 mph45%30.12 "Hg10 mi
1:53 PM17 °FSunny.No wind42%30.14 "Hg10 mi
12:53 PM14 °FSunny.3 mph49%30.17 "Hg10 mi
11:53 AM10 °FSunny.No wind58%30.22 "Hg10 mi
10:53 AM8 °FSunny.No wind57%30.23 "Hg10 mi
9:53 AM6 °FSunny.No wind63%30.26 "Hg10 mi
8:53 AM4 °FScattered clouds.No wind69%30.26 "Hg10 mi
7:53 AM3 °FBroken clouds.7 mph66%30.25 "Hg10 mi
6:53 AM3 °FOvercast.8 mph72%30.21 "Hg9 mi
5:53 AM6 °FOvercast.6 mph66%30.19 "Hg10 mi
4:53 AM7 °FOvercast.15 mph66%30.16 "Hg10 mi
4:01 AM8 °FLight snow. Overcast.15 mph66%29.95 "Hg5 mi
Weather by CustomWeather, © 2015

See weather overviewHow to use our weather pages